This is the latest recevied weather packets stored in our database for station/object IK1PCD-11. If no packets are shown the sender has not sent any weather packets the latest 10 day(s).
| Time | Temp. | Humidity | Pressure | Rain* | Wind** | Luminosity | Snow |
|---|---|---|---|---|---|---|---|
| 1788167352 | 18.89° C | 100% | 1020.2 hPa | - | - | - | - |
| 1788164650 | 16.11° C | 100% | 1020.1 hPa | - | - | - | - |
| 1788163750 | 15.56° C | 100% | 1020.1 hPa | - | - | - | - |
| 1788162863 | 15° C | 100% | 1019.8 hPa | - | - | - | - |
| 1788161963 | 14.44° C | 100% | 1019.9 hPa | - | - | - | - |
| 1788161062 | 13.89° C | 100% | 1019.8 hPa | - | - | - | - |
| 1788160162 | 13.33° C | 100% | 1019.7 hPa | - | - | - | - |
| 1788159262 | 12.78° C | 100% | 1019.7 hPa | - | - | - | - |
| 1788158362 | 12.22° C | 100% | 1019.6 hPa | - | - | - | - |
| 1788157462 | 11.67° C | 100% | 1019.5 hPa | - | - | - | - |
| 1788156562 | 11.11° C | 100% | 1019.3 hPa | - | - | - | - |
| 1788155662 | 11.11° C | 100% | 1019.1 hPa | - | - | - | - |
| 1788154762 | 10.56° C | 100% | 1018.9 hPa | - | - | - | - |
| 1788153862 | 10.56° C | 100% | 1018.9 hPa | - | - | - | - |
| 1788150253 | 11.11° C | 100% | 1018.5 hPa | - | - | - | - |
| 1788149353 | 11.11° C | 100% | 1018.6 hPa | - | - | - | - |
| 1788148455 | 11.11° C | 100% | 1018.8 hPa | - | - | - | - |
| 1788147552 | 11.11° C | 100% | 1018.9 hPa | - | - | - | - |
| 1788146652 | 11.11° C | 100% | 1019.1 hPa | - | - | - | - |
| 1788145752 | 11.67° C | 100% | 1019.2 hPa | - | - | - | - |
| 1788144851 | 11.67° C | 100% | 1019.2 hPa | - | - | - | - |
| 1788143951 | 11.67° C | 100% | 1019.1 hPa | - | - | - | - |
| 1788116056 | 16.67° C | 100% | 1019.3 hPa | - | - | - | - |
| 1788107953 | 22.22° C | 100% | 1018.2 hPa | - | - | - | - |
| 1788107050 | 22.78° C | 100% | 1018.1 hPa | - | - | - | - |
* Rain since midnight (hover to see other rain measurements)
** Current wind speed in m/s (hover to see current wind gust speed)